[[{"header":{"parameterUnit":"m.s-1","parameterCategory":1,"la1":30.2991,"la2":30.254,"lo1":-89.0895,"lo2":-89.0444,"dy":0.0017,"dx":0.0017,"nx":28,"ny":28,"refTime":"2024-08-02T21:00:00:Z","depth":0,"parameterNumber":2,"parameterNumberName":"U-component_of_WINDS"},"data":[0,0,0,0,0,0,0,0,0,0,0,0,0,0,0,0,0,0,0,0,0,0,0,0,0,0,0,0,0,0,0,0,0,0,0,0,0,0,0,0,0,0,0,0,0,0,0,0,0,0,0,0,0,0,0,0,0,0,-1.0488,-1.0488,0,-1.0501,-1.0501,-1.0502,-1.0525,-1.0525,-1.0525,-1.0526,-1.054,-1.054,-1.054,0,0,0,0,0,0,0,0,0,0,0,0,0,-1.0482,-1.0482,-1.0488,-1.0488,-1.0488,-1.0501,-1.0502,-1.0502,-1.0524,-1.0525,-1.0525,-1.0526,-1.054,-1.054,-1.054,0,0,0,0,0,0,0,0,0,0,0,0,0,-1.0489,-1.0482,-1.0488,-1.0501,-1.0503,-1.0501,-1.0502,-1.0502,-1.0524,-1.0525,-1.0526,-1.0526,-1.054,-1.054,-1.054,-1.0527,0,0,-1.054,-1.054,0,0,0,0,0,0,0,0,-1.0489,-1.0489,-1.0499,-1.05,-1.0502,-1.0512,-1.0505,-1.051,-1.0524,-1.0516,-1.0526,-1.0527,-1.053,-1.0531,-1.0532,-1.0528,-1.0528,-1.054,-1.054,-1.054,-1.054,0,0,0,0,0,0,0,-1.0488,-1.0489,-1.0493,-1.0499,-1.0501,-1.0507,-1.0508,-1.0506,-1.0519,-1.0517,-1.0519,-1.052,-1.0531,-1.0532,-1.0533,-1.0529,-1.054,-1.054,-1.054,-1.054,-1.0513,-1.0512,0,0,0,0,0,0,-1.0486,-1.0488,-1.0493,-1.0494,-1.0497,-1.0506,-1.0508,-1.0508,-1.0519,-1.0522,-1.0519,-1.0521,-1.0532,-1.0533,-1.0533,-1.0518,-1.054,-1.054,-1.054,-1.0514,-1.0513,-1.0512,0,0,0,0,0,0,-1.0485,-1.0486,-1.0492,-1.0491,-1.0493,-1.0506,-1.0505,-1.0508,-1.0509,-1.0521,-1.0524,-1.0518,-1.0532,-1.0533,-1.0528,-1.0519,-1.054,-1.054,-1.0515,-1.0513,-1.0513,-1.0488,0,0,0,0,0,0,-1.0485,-1.0486,-1.0481,-1.0491,-1.0493,-1.0487,-1.0505,-1.0508,-1.0509,-1.0511,-1.0521,-1.0523,-1.0533,-1.0528,-1.0528,-1.0519,-1.054,-1.0515,-1.0514,-1.0513,-1.0489,-1.0486,-1.0483,0,0,0,0,0,-1.0485,-1.0474,-1.048,-1.0481,-1.0487,-1.0486,-1.0487,-1.0499,-1.0508,-1.0503,-1.0511,-1.0522,-1.052,-1.0527,-1.0528,-1.0518,-1.0516,-1.0514,-1.0513,-1.0491,-1.0487,-1.0483,0,0,0,0,0,0,-1.0462,-1.0475,-1.0483,-1.0475,-1.0479,-1.049,-1.0484,-1.0494,-1.0496,-1.0498,-1.0513,-1.0515,-1.0508,-1.0513,-1.0521,-1.0506,-1.052,-1.0518,-1.0503,-1.0499,-1.0496,-1.0494,-1.054,0,0,0,0,0,-1.0456,-1.0455,-1.0466,-1.0458,-1.046,-1.0472,-1.0472,-1.048,-1.0486,-1.0488,-1.0495,-1.05,-1.05,-1.05,-1.0501,-1.049,-1.0492,-1.0484,-1.0481,-1.0478,-1.0477,-1.047,-1.0467,-1.0507,-1.0507,-1.0507,0,0,-1.0444,-1.0451,-1.0449,-1.0453,-1.0458,-1.0456,-1.0473,-1.047,-1.0469,-1.0487,-1.0483,-1.0488,-1.0495,-1.0486,-1.0483,-1.049,-1.0466,-1.0476,-1.0474,-1.0474,-1.0468,-1.0465,-1.0461,-1.0506,-1.0506,-1.0506,0,0,-1.042,-1.0426,-1.0419,-1.0423,-1.0429,-1.0437,-1.0435,-1.0445,-1.0449,-1.0444,-1.0458,-1.0457,-1.0457,-1.046,-1.0462,-1.0439,-1.0449,-1.0439,-1.0422,-1.0416,-1.0413,-1.041,-1.04,-1.0397,-1.0437,-1.0437,-1.0437,0,-1.0404,-1.0401,-1.0414,-1.041,-1.0411,-1.0428,-1.0421,-1.0424,-1.043,-1.0431,-1.0439,-1.0439,-1.0444,-1.0437,-1.0431,-1.0432,-1.043,-1.0438,-1.0412,-1.0409,-1.0407,-1.0398,-1.0395,-1.0436,-1.0436,-1.0436,-1.0436,0,-1.0381,-1.0379,-1.0372,-1.0377,-1.0378,-1.0372,-1.0384,-1.0383,-1.0392,-1.0399,-1.0393,-1.04,-1.0403,-1.0402,-1.041,-1.0395,-1.0399,-1.0409,-1.0423,-1.0401,-1.0393,-1.039,-1.0434,-1.0434,-1.0435,-1.0435,0,0,-1.0343,-1.0355,-1.0352,-1.0354,-1.0362,-1.0361,-1.0356,-1.0358,-1.0356,-1.036,-1.0356,-1.0355,-1.0364,-1.0366,-1.0376,-1.037,-1.035,-1.0381,-1.0381,-1.0374,-1.0333,-1.0324,-1.032,-1.0357,-1.0357,-1.0356,-1.0332,0,-1.0321,-1.0312,-1.0323,-1.0313,-1.031,-1.0326,-1.0321,-1.0325,-1.0332,-1.0331,-1.0338,-1.0337,-1.035,-1.0351,-1.0346,-1.0353,-1.0342,-1.0356,-1.0353,-1.0353,-1.035,-1.0316,-1.0307,-1.0284,-1.0329,-1.0328,-1.0328,0,-1.0293,-1.0295,-1.0283,-1.0291,-1.0291,-1.0286,-1.0288,-1.0287,-1.0292,-1.0297,-1.0299,-1.0309,-1.0305,-1.0319,-1.0312,-1.0321,-1.0321,-1.0324,-1.0324,-1.0323,-1.0338,-1.0314,-1.0277,-1.0273,-1.0323,-1.0324,-1.0324,0,-1.0266,-1.0265,-1.0258,-1.026,-1.0269,-1.0265,-1.0269,-1.0274,-1.0274,-1.0276,-1.0276,-1.0278,-1.0278,-1.0279,-1.029,-1.0299,-1.0281,-1.0297,-1.0285,-1.0284,-1.028,-1.028,-1.0241,-1.0281,-1.0281,-1.0281,-1.0281,0,-1.0239,-1.0231,-1.0246,-1.0241,-1.0233,-1.0246,-1.0237,-1.0242,-1.0247,-1.0244,-1.0258,-1.0254,-1.0269,-1.0267,-1.0275,-1.0268,-1.0268,-1.0272,-1.0274,-1.027,-1.0269,-1.0269,-1.0271,-1.028,-1.028,-1.0281,-1.0281,0,-1.0206,-1.0216,-1.0209,-1.0218,-1.022,-1.0213,-1.0221,-1.0217,-1.0224,-1.022,-1.0219,-1.023,-1.0229,-1.0239,-1.024,-1.0246,-1.0234,-1.0239,-1.0232,-1.0233,-1.0221,-1.0221,-1.018,-1.0175,-1.0219,-1.0218,-1.0218,0,-1.0188,-1.0182,-1.019,-1.0189,-1.0191,-1.0189,-1.0189,-1.0201,-1.02,-1.0205,-1.0201,-1.02,-1.02,-1.0197,-1.0205,-1.0205,-1.021,-1.0195,-1.021,-1.0206,-1.0209,-1.0208,-1.0207,-1.0192,-1.0192,-1.0191,-1.0191,0,-1.0154,-1.0159,-1.0158,-1.0159,-1.0158,-1.0159,-1.0161,-1.0159,-1.0172,-1.0171,-1.0169,-1.0169,-1.0169,-1.0168,-1.017,-1.0174,-1.0184,-1.0186,-1.0183,-1.0179,-1.0174,-1.0176,-1.0223,-1.0187,-1.0187,-1.0188,-1.0188,-1.0188,-1.0128,-1.0123,-1.0127,-1.0126,-1.0128,-1.013,-1.0126,-1.0132,-1.0131,-1.0132,-1.0139,-1.0136,-1.014,-1.0143,-1.0146,-1.0143,-1.015,-1.0147,-1.0145,-1.0144,-1.0141,-1.0175,-1.0144,-1.0144,-1.0144,-1.0144,-1.0144,0,-1.0094,-1.0097,-1.0096,-1.0098,-1.0096,-1.0106,-1.0109,-1.0107,-1.0103,-1.0106,-1.0106,-1.0103,-1.0102,-1.011,-1.011,-1.0106,-1.0111,-1.0105,-1.0105,-1.0106,-1.0136,-1.0138,-1.0102,-1.0102,-1.0102,-1.0102,-1.0102,-1.0102,-1.0076,-1.0068,-1.0073,-1.0067,-1.007,-1.0067,-1.0067,-1.0068,-1.0071,-1.0067,-1.0066,-1.0071,-1.0075,-1.0076,-1.0075,-1.0077,-1.0076,-1.0069,-1.0072,-1.01,-1.0104,-1.0108,-1.011,-1.0069,-1.0069,-1.0043,-1.0043,-1.0043]},{"header":{"parameterUnit":"m.s-1","parameterCategory":1,"la1":30.2991,"la2":30.254,"lo1":-89.0895,"lo2":-89.0444,"dy":0.0017,"dx":0.0017,"nx":28,"ny":28,"refTime":"2024-08-02T21:00:00:Z","depth":0,"parameterNumber":3,"parameterNumberName":"V-component_of_WINDS"},"data":[0,0,0,0,0,0,0,0,0,0,0,0,0,0,0,0,0,0,0,0,0,0,0,0,0,0,0,0,0,0,0,0,0,0,0,0,0,0,0,0,0,0,0,0,0,0,0,0,0,0,0,0,0,0,0,0,0,0,0.0615,0.0615,0,0.065,0.0651,0.0651,0.0652,0.0652,0.0651,0.0651,0.0686,0.0687,0.0688,0,0,0,0,0,0,0,0,0,0,0,0,0,0.0547,0.0548,0.0615,0.0615,0.0615,0.065,0.0651,0.0651,0.0652,0.0652,0.0651,0.0651,0.0685,0.0687,0.0689,0,0,0,0,0,0,0,0,0,0,0,0,0,0.0579,0.0548,0.0614,0.062,0.0621,0.065,0.0651,0.0651,0.0652,0.0652,0.0651,0.065,0.0685,0.0687,0.0689,0.0714,0,0,0.0695,0.0696,0,0,0,0,0,0,0,0,0.0577,0.0581,0.0619,0.062,0.0621,0.0646,0.0639,0.0672,0.0652,0.064,0.0651,0.065,0.0673,0.0676,0.0684,0.0716,0.0717,0.0695,0.0696,0.0697,0.0698,0,0,0,0,0,0,0,0.0574,0.0579,0.0629,0.0619,0.0621,0.0621,0.0624,0.0646,0.066,0.0641,0.0642,0.0646,0.0673,0.0682,0.0685,0.0718,0.0695,0.0697,0.0698,0.0699,0.0773,0.0774,0,0,0,0,0,0,0.0571,0.0578,0.0627,0.063,0.0597,0.0622,0.0627,0.0639,0.066,0.0662,0.0646,0.0646,0.0679,0.0683,0.0686,0.0718,0.0697,0.0699,0.07,0.0772,0.0773,0.0774,0,0,0,0,0,0,0.057,0.0576,0.0626,0.0604,0.061,0.0624,0.0638,0.064,0.0648,0.0663,0.0666,0.0653,0.0679,0.0683,0.0707,0.0719,0.07,0.0702,0.0771,0.0772,0.0773,0.0782,0,0,0,0,0,0,0.0568,0.0575,0.0585,0.0604,0.0611,0.0647,0.0638,0.0641,0.0652,0.0651,0.067,0.0672,0.0678,0.0704,0.0709,0.0722,0.0703,0.077,0.0772,0.0773,0.0781,0.0783,0.0786,0,0,0,0,0,0.0565,0.0586,0.0586,0.0592,0.0624,0.0648,0.0652,0.0659,0.0653,0.0663,0.0673,0.0672,0.0717,0.0707,0.0713,0.0726,0.077,0.0771,0.0773,0.078,0.0783,0.0786,0,0,0,0,0,0,0.0568,0.0588,0.0589,0.0615,0.063,0.0648,0.0661,0.0662,0.0678,0.0677,0.0684,0.0689,0.0713,0.0721,0.071,0.0752,0.0742,0.0745,0.0746,0.0749,0.0751,0.0749,0.0705,0,0,0,0,0,0.0571,0.0589,0.0606,0.0628,0.0635,0.0647,0.0657,0.0662,0.0677,0.0683,0.0694,0.0709,0.0726,0.0738,0.0754,0.0781,0.0786,0.0793,0.0796,0.0797,0.08,0.0816,0.082,0.078,0.078,0.0779,0,0,0.0579,0.0592,0.0603,0.0629,0.0641,0.0659,0.0652,0.0671,0.0685,0.0686,0.071,0.0718,0.0735,0.0761,0.0773,0.0769,0.0812,0.08,0.0801,0.0803,0.0819,0.0823,0.0826,0.0781,0.078,0.078,0,0,0.0603,0.0614,0.0635,0.0647,0.0665,0.0672,0.0677,0.0695,0.0701,0.0726,0.0726,0.0742,0.0772,0.0784,0.0794,0.0823,0.0823,0.0828,0.0841,0.0856,0.086,0.0863,0.0874,0.0878,0.083,0.083,0.083,0,0.061,0.0638,0.0645,0.0665,0.0677,0.0678,0.0699,0.071,0.0732,0.074,0.0735,0.0773,0.0784,0.0814,0.0821,0.0828,0.0834,0.0827,0.0859,0.0862,0.0865,0.0876,0.088,0.0831,0.0831,0.0831,0.0831,0,0.0647,0.0667,0.0681,0.0703,0.0716,0.0736,0.0746,0.0758,0.0761,0.0769,0.0794,0.0807,0.0827,0.0834,0.0837,0.0864,0.0861,0.0857,0.0848,0.0869,0.088,0.0884,0.0832,0.0832,0.0831,0.0831,0,0,0.0675,0.0701,0.0706,0.0717,0.0736,0.0752,0.0771,0.0792,0.0803,0.0817,0.0835,0.086,0.0857,0.0868,0.0872,0.0885,0.0909,0.088,0.0881,0.0886,0.0942,0.0946,0.0951,0.0908,0.0909,0.091,0.0941,0,0.0702,0.0739,0.0746,0.0778,0.0796,0.0798,0.0815,0.0829,0.0837,0.0854,0.0862,0.088,0.0873,0.0881,0.0894,0.0903,0.0921,0.0901,0.0926,0.0927,0.0924,0.0956,0.0961,0.099,0.0945,0.0946,0.0946,0,0.074,0.0757,0.0791,0.0809,0.0817,0.0833,0.0853,0.0868,0.0884,0.0889,0.0901,0.0904,0.0925,0.0913,0.0943,0.093,0.094,0.0946,0.0947,0.0951,0.0939,0.0963,0.0999,0.1004,0.0953,0.0952,0.0952,0,0.0759,0.079,0.0815,0.0823,0.0845,0.0856,0.0865,0.088,0.0892,0.0909,0.0917,0.0935,0.0946,0.096,0.0967,0.0958,0.0996,0.0985,0.1002,0.1002,0.1011,0.1011,0.1051,0.1014,0.1014,0.1014,0.1014,0,0.079,0.0811,0.0824,0.0839,0.0863,0.087,0.0894,0.0902,0.0916,0.0933,0.0934,0.095,0.0958,0.0975,0.098,0.1005,0.1009,0.1014,0.1015,0.1015,0.1014,0.1023,0.1022,0.1015,0.1015,0.1015,0.1015,0,0.0816,0.0825,0.0853,0.0871,0.0876,0.0893,0.0908,0.0923,0.093,0.0952,0.0958,0.0969,0.099,0.0997,0.1022,0.1025,0.1054,0.1053,0.1049,0.105,0.1067,0.1066,0.1116,0.1123,0.108,0.108,0.108,0,0.0837,0.0853,0.0873,0.0885,0.0895,0.0914,0.0926,0.0933,0.0946,0.0965,0.0978,0.0998,0.1015,0.1048,0.1058,0.1077,0.1078,0.1094,0.1081,0.108,0.108,0.108,0.1083,0.1097,0.1097,0.1098,0.1098,0,0.0873,0.0876,0.0895,0.0915,0.0929,0.0945,0.096,0.097,0.0979,0.0993,0.1014,0.1027,0.1053,0.1073,0.1093,0.1102,0.1102,0.1102,0.1107,0.1108,0.1106,0.1109,0.1058,0.1101,0.1101,0.1101,0.11,0.11,0.0898,0.0914,0.093,0.0951,0.0963,0.0977,0.0993,0.1002,0.102,0.1042,0.1044,0.1067,0.1082,0.1109,0.1119,0.1137,0.1132,0.1139,0.1142,0.1144,0.1146,0.1101,0.114,0.114,0.114,0.114,0.114,0,0.0936,0.0947,0.0965,0.0987,0.1003,0.1001,0.1018,0.1032,0.1052,0.1067,0.1083,0.1108,0.1128,0.114,0.116,0.1172,0.1172,0.1177,0.1177,0.118,0.1148,0.1142,0.1176,0.1176,0.1176,0.1176,0.1176,0.1176,0.0958,0.0985,0.099,0.1023,0.1033,0.1056,0.1066,0.1079,0.1091,0.1119,0.1136,0.1143,0.1157,0.1178,0.1196,0.1199,0.1207,0.1212,0.1215,0.1185,0.1182,0.1178,0.1173,0.1213,0.1213,0.1246,0.1246,0.1247]}]]